"Pseudo-MPEC" for P21JUYR

Created 2023 Sep 21 11:22:31 UT using Find_Orb

Click here for an explanation of pseudo-MPECs

 
 Astrometry: 
     P21JUYR  C2023 09 13,`t#[_H?Y1]Lm,4*+D6nKnnF`M,G!wS;rVQ17SPpdgBXs0$.RLY@F51
     P21JUYR  C2023 09 13Y`H?-#=:?iKpbI*XhqUFj?HNntaIou/=:q@1e96cTAstrometryxF51
     P21JUYR  C2023 09 13g^1U/@US_q!g?P)hE$Rb#\*hP*%99WwB5-bj`;C[lLI7P!SI$iSGF51
     P21JUYR  C2023 09 13?7LYP]9(OiBs)x5EBp7nredacted;?(Eu5Hy%!FxlLWwdK%clickF51
     P21JUYR* C2023 09 18jnfsQe.w-Xh!xKs`HL?#sJyOGc-TttN%96VoEUGJVtdXF*6s`sQaF52
     P21JUYR  C2023 09 186,ghereD`;r4@1%w1NvfuFvo0/;nyip_R.gPn(H]3byx6u?1u;Z`F52
     P21JUYR  C2023 09 18$OT#%Z'gi)=]ef@hS\ARr=q]lf=RkGaHefeG[g6e^M*Jnr$P:0#1F52
     P21JUYR  C2023 09 18'`WGXdl%K;DkD8ae(JUeN#],TQWwqNEO8kTc,yTfwF(c(bg]M;;eF52
     P21JUYR  C2023 09 18Hopgw;;'S,5pmh$Y@Ja],$JCQ?^gS3`3Ve;qFHW[J$B^DFy',#QOF51
     P21JUYR  C2023 09 18Up4Kfor8A^RU8.t-Y@UjUM;YIS#IR*UV5+e`?6R`O*oglCOKc^;?F51
     P21JUYR  C2023 09 1820x5=_p`:PEk6[hY0L(RL'C5e8.Q#-g@cj#@JS@;i^Q1qa79/L@RF51
     P21JUYR 0B2023 09 21;`EJkHWXBt83QY]+SSNk*:cEQ=_aiYm*?8.1:?C]9\JkoaPHn$mRM49
     P21JUYR 0B2023 09 21VxJs7eJX!jK/U?ORVBhZg7v=_jv-wncO7@]-j.4Ai`GvqCQ1VMNoM49
     P21JUYR 0B2023 09 21r$Is@xkWOd.EMwfE@lQ5explanation[)k0)`(-cQZ))L:G!$0+aM49

Station data:
(F51) Pan-STARRS 1, Haleakala  (N20.707234 W156.255910)  US/Hawaii.
   Observers J. Bulger, T. Lowe, A. Schultz, M. Willman. Measurers K.
   Chambers, S. Chastel, T. de Boer, L. Denneau, J. Fairlamb, H. Flewelling,
   M. Huber, C.-C. Lin, E. Magnier, Y. Ramanjooloo, R. Wainscoat, R. Weryk.
   1.8-m Ritchey-Chrétien + CCD.
(F52) Pan-STARRS 2, Haleakala  (N20.707382 W156.255910)  US/Hawaii.
   Observers J. Bulger, T. Dukes, T. Lowe, A. Schultz, M. Willman. Measurers
   K. Chambers, S. Chastel, T. de Boer, L. Denneau, J. Fairlamb, H.
   Flewelling, M. Huber, C.-C. Lin, E. Magnier, Y. Ramanjooloo, R. Wainscoat,
   R. Weryk. 1.8-m Ritchey-Chrétien + CCD.
(M49) IAS Remote Observatory, Hakos  (S23.236549 E16.361720)  Namibia.
   Observers D. Husar, M. Junius. Measurer D. Husar. 0.25-m f/4.6 reflector +
   CCD.

Orbital elements:  P21JUYR
   Perihelion 2023 Dec 7.83384 +/- 0.0412 TT = 20:00:44 (JD 2460286.33384)
Epoch 2023 Sep 21.0 TT = JDT 2460208.5   Earth MOID: 0.0022   Ve: 0.0619
M 284.49596624 +/- 0.06             (J2000 ecliptic)             AutoNEOCP
n   0.97006688 +/- 0.000342         Peri.  106.74842 +/- 0.017
a   1.01065189 +/- 0.000238         Node     0.99133 +/- 0.00053
e   0.3006523 +/- 0.000389          Incl.   15.43817 +/- 0.023
P   1.02/371.10d           H 26.29  G  0.15   U  7.4
q 0.70679703 +/- 0.000227    Q 1.31450675 +/- 0.000702
From 14 observations 2023 Sept. 13-21; mean residual 0".18
Residuals in arcseconds: 
230913 F51  .01-  .23-    230918 F52  .16-  .00     230918 F51  .08+  .07-    
230913 F51  .14+  .24-    230918 F52  .03-  .02-    230921 M49  .18+  .12+    
230913 F51  .15+  .08+    230918 F52  .09-  .01-    230921 M49  .30+  .23+    
230913 F51  .08-  .58+    230918 F51  .09-  .08-    230921 M49  .22+  .32+    
230918 F52  .08-  .05-    230918 F51  .03+  .04-    

Ephemerides (geocentric):
Date (UTC) HH   RA             Dec           delta  r     elong  mag " sig PA
---- --------  ------------   ------------  ------ ------ -----  --- --------
2023 09 21 11  01 51 10.011   -27 02 13.56  .02367 1.0227 141.3 19.7 .435  94
2023 09 21 12  01 50 58.413   -26 59 29.40  .02339 1.0225 141.3 19.7 .457  96
2023 09 21 13  01 50 46.538   -26 56 41.11  .02311 1.0223 141.4 19.7 .481  98
2023 09 21 14  01 50 34.377   -26 53 48.56  .02283 1.0221 141.5 19.7 .507  99
2023 09 21 15  01 50 21.919   -26 50 51.59  .02255 1.0218 141.6 19.6 .534 101
2023 09 21 16  01 50 09.154   -26 47 50.02  .02228 1.0216 141.7 19.6 .563 102
2023 09 21 17  01 49 56.072   -26 44 43.68  .02200 1.0214 141.8 19.6 .594 104
2023 09 21 18  01 49 42.660   -26 41 32.40  .02172 1.0212 141.8 19.5 .627 105
2023 09 21 19  01 49 28.907   -26 38 15.97  .02144 1.0210 141.9 19.5 .662 106
2023 09 21 20  01 49 14.799   -26 34 54.19  .02117 1.0208 142.0 19.5 .699 108
2023 09 21 21  01 49 00.323   -26 31 26.85  .02089 1.0206 142.1 19.4 .739 109
2023 09 21 22  01 48 45.466   -26 27 53.73  .02061 1.0204 142.2 19.4 .781 110
2023 09 21 23  01 48 30.212   -26 24 14.58  .02034 1.0202 142.3 19.4 .825 111
2023 09 22 00  01 48 14.546   -26 20 29.15  .02006 1.0199 142.4 19.3 .873 112
2023 09 22 01  01 47 58.452   -26 16 37.18  .01978 1.0197 142.5 19.3 .923 113
2023 09 22 02  01 47 41.911   -26 12 38.39  .01950 1.0195 142.6 19.3 .976 114
2023 09 22 03  01 47 24.907   -26 08 32.48  .01923 1.0193 142.7 19.2 1.03 115
2023 09 22 04  01 47 07.419   -26 04 19.13  .01895 1.0191 142.8 19.2 1.09 116
2023 09 22 05  01 46 49.427   -25 59 58.01  .01867 1.0189 142.9 19.2 1.16 116
2023 09 22 06  01 46 30.910   -25 55 28.78  .01840 1.0187 143.1 19.1 1.22 117
2023 09 22 07  01 46 11.844   -25 50 51.04  .01812 1.0184 143.2 19.1 1.30 118
2023 09 22 08  01 45 52.207   -25 46 04.41  .01784 1.0182 143.3 19.1 1.37 119
2023 09 22 09  01 45 31.972   -25 41 08.46  .01757 1.0180 143.4 19.0 1.45 119
2023 09 22 10  01 45 11.111   -25 36 02.75  .01729 1.0178 143.5 19.0 1.54 120
2023 09 22 11  01 44 49.597   -25 30 46.78  .01701 1.0176 143.7 18.9 1.63 121
2023 09 22 12  01 44 27.399   -25 25 20.04  .01674 1.0174 143.8 18.9 1.73 121
2023 09 22 13  01 44 04.484   -25 19 42.00  .01646 1.0172 144.0 18.9 1.83 122
2023 09 22 14  01 43 40.817   -25 13 52.06  .01618 1.0170 144.1 18.8 1.94 123
2023 09 22 15  01 43 16.362   -25 07 49.61  .01591 1.0167 144.3 18.8 2.06 123
2023 09 22 16  01 42 51.079   -25 01 33.96  .01563 1.0165 144.4 18.7 2.19 124
2023 09 22 17  01 42 24.926   -24 55 04.41  .01535 1.0163 144.6 18.7 2.32 124
2023 09 22 18  01 41 57.859   -24 48 20.18  .01508 1.0161 144.7 18.7 2.46 125
2023 09 22 19  01 41 29.828   -24 41 20.45  .01480 1.0159 144.9 18.6 2.62 125
2023 09 22 20  01 41 00.783   -24 34 04.32  .01453 1.0157 145.1 18.6 2.78 126
2023 09 22 21  01 40 30.669   -24 26 30.83  .01425 1.0155 145.3 18.5 2.96 126
2023 09 22 22  01 39 59.426   -24 18 38.96  .01398 1.0153 145.5 18.5 3.14 127
2023 09 22 23  01 39 26.989   -24 10 27.58  .01370 1.0150 145.6 18.4 3.35 127
2023 09 23 00  01 38 53.292   -24 01 55.48  .01343 1.0148 145.9 18.4 3.56 128
2023 09 23 01  01 38 18.258   -23 53 01.34  .01315 1.0146 146.1 18.3 3.80 128
2023 09 23 02  01 37 41.810   -23 43 43.76  .01288 1.0144 146.3 18.3 4.05 128
2023 09 23 03  01 37 03.859   -23 34 01.17  .01260 1.0142 146.5 18.2 4.32 129
2023 09 23 04  01 36 24.313   -23 23 51.90  .01233 1.0140 146.8 18.2 4.61 129
2023 09 23 05  01 35 43.070   -23 13 14.11  .01205 1.0138 147.0 18.1 4.92 130
2023 09 23 06  01 35 00.019   -23 02 05.79  .01178 1.0135 147.3 18.0 5.26 130
2023 09 23 07  01 34 15.041   -22 50 24.75  .01151 1.0133 147.5 18.0 5.63 130
2023 09 23 08  01 33 28.005   -22 38 08.58  .01123 1.0131 147.8 17.9 6.03 131
2023 09 23 09  01 32 38.768   -22 25 14.62  .01096 1.0129 148.1 17.9 6.46 131
2023 09 23 10  01 31 47.173   -22 11 39.97  .01069 1.0127 148.4 17.8 6.93 132